User: anonymous   Login
Location: Paris
(18.5000°N, 73.9167°W)
Time: 17:06:35
(UTC+00:00)
Language:

Cosmos 1892 - Orbit

View from above orbital plane
View from above orbital plane
View from above satellite
View from above satellite

Ground track
Ground track

The orbit data is extracted from the following two-line orbital elements,

1 18421U 87088A   24172.73568991  .00012017  00000-0  35490-3 0  9996
2 18421  82.4930 254.0170 0009228 348.8450  11.2587 15.34782642  7212
Epoch (UTC): 20 June 2024 17:39:23
Eccentricity: 0.0009228
inclination: 82.4930°
perigee height: 455 km
apogee height: 468 km
right ascension of ascending node: 254.0170°
argument of perigee: 348.8450°
revolutions per day: 15.34782642
mean anomaly at epoch: 11.2587°
orbit number at epoch: 721

The dashed part of the orbit path shows where the satellite is in the earth's shadow,  

DLR